Time,TemperatureF,DewpointF,PressureIn,WindDirection,WindDirectionDegrees,WindSpeedMPH,WindSpeedGustMPH,Humidity,HourlyPrecipIn,Conditions,Clouds,dailyrainin,SoftwareType,DateUTC
2013-02-09 00:01:00,53.0,-99.9,29.96,NW,315,13.0,15.0,-999,-99.99,,,-99.99,,2013-02-09 08:01:00,
2013-02-09 00:11:00,53.0,-99.9,29.96,NW,309,11.0,15.0,-999,-99.99,,,-99.99,,2013-02-09 08:11:00,
2013-02-09 00:22:00,53.0,-99.9,29.97,NW,308,12.0,15.0,-999,-99.99,,,-99.99,,2013-02-09 08:22:00,
2013-02-09 00:32:00,53.0,-99.9,29.97,NW,309,14.0,16.0,-999,-99.99,,,-99.99,,2013-02-09 08:32:00,
2013-02-09 00:42:00,52.0,-99.9,29.97,NW,310,13.0,16.0,-999,-99.99,,,-99.99,,2013-02-09 08:42:00,
2013-02-09 00:52:00,52.0,-99.9,29.97,WNW,299,11.0,18.0,-999,-99.99,,,-99.99,,2013-02-09 08:52:00,
2013-02-09 01:03:00,52.0,-99.9,29.97,WNW,301,11.0,19.0,-999,-99.99,,,-99.99,,2013-02-09 09:03:00,
2013-02-09 01:11:00,52.0,-99.9,29.97,NW,312,12.0,18.0,-999,-99.99,,,-99.99,,2013-02-09 09:11:00,
2013-02-09 01:22:00,52.0,-99.9,29.97,NW,309,12.0,17.0,-999,-99.99,,,-99.99,,2013-02-09 09:22:00,
2013-02-09 01:32:00,52.0,-99.9,29.98,NW,310,12.0,16.0,-999,-99.99,,,-99.99,,2013-02-09 09:32:00,
2013-02-09 01:42:00,51.0,-99.9,29.98,NW,314,12.0,14.0,-999,-99.99,,,-99.99,,2013-02-09 09:42:00,
2013-02-09 01:52:00,51.0,-99.9,29.98,WNW,299,8.0,12.0,-999,-99.99,,,-99.99,,2013-02-09 09:52:00,
2013-02-09 02:01:00,51.0,-99.9,29.98,West,259,6.0,10.0,-999,-99.99,,,-99.99,,2013-02-09 10:01:00,
2013-02-09 02:11:00,50.0,-99.9,29.98,WSW,254,6.0,8.0,-999,-99.99,,,-99.99,,2013-02-09 10:11:00,
2013-02-09 02:21:00,50.0,-99.9,29.98,West,259,6.0,11.0,-999,-99.99,,,-99.99,,2013-02-09 10:21:00,
2013-02-09 02:32:00,50.0,-99.9,29.98,WSW,258,6.0,11.0,-999,-99.99,,,-99.99,,2013-02-09 10:32:00,
2013-02-09 02:42:00,50.0,-99.9,29.98,West,259,6.0,9.0,-999,-99.99,,,-99.99,,2013-02-09 10:42:00,
2013-02-09 02:52:00,49.0,-99.9,29.99,WSW,258,4.0,8.0,-999,-99.99,,,-99.99,,2013-02-09 10:52:00,
2013-02-09 03:02:00,49.0,-99.9,29.99,WSW,248,8.0,12.0,-999,-99.99,,,-99.99,,2013-02-09 11:02:00,
2013-02-09 03:11:00,49.0,-99.9,29.98,WSW,248,6.0,11.0,-999,-99.99,,,-99.99,,2013-02-09 11:11:00,
2013-02-09 03:22:00,49.0,-99.9,29.99,West,263,5.0,7.0,-999,-99.99,,,-99.99,,2013-02-09 11:22:00,
2013-02-09 03:32:00,49.0,-99.9,29.99,West,275,6.0,10.0,-999,-99.99,,,-99.99,,2013-02-09 11:32:00,
2013-02-09 03:42:00,49.0,-99.9,29.99,West,262,6.0,10.0,-999,-99.99,,,-99.99,,2013-02-09 11:42:00,
2013-02-09 03:52:00,49.0,-99.9,29.99,West,259,5.0,8.0,-999,-99.99,,,-99.99,,2013-02-09 11:52:00,
2013-02-09 04:02:00,49.0,-99.9,29.99,WSW,257,6.0,10.0,-999,-99.99,,,-99.99,,2013-02-09 12:02:00,
2013-02-09 04:11:00,50.0,-99.9,29.99,West,261,6.0,10.0,-999,-99.99,,,-99.99,,2013-02-09 12:11:00,
2013-02-09 04:22:00,49.0,-99.9,29.99,West,265,4.0,8.0,-999,-99.99,,,-99.99,,2013-02-09 12:22:00,
2013-02-09 04:32:00,49.0,-99.9,29.99,West,261,4.0,7.0,-999,-99.99,,,-99.99,,2013-02-09 12:32:00,
2013-02-09 04:42:00,49.0,-99.9,29.99,West,263,5.0,9.0,-999,-99.99,,,-99.99,,2013-02-09 12:42:00,
2013-02-09 04:53:00,49.0,-99.9,29.99,West,266,5.0,8.0,-999,-99.99,,,-99.99,,2013-02-09 12:53:00,
2013-02-09 05:02:00,49.0,-99.9,29.99,WNW,288,5.0,7.0,-999,-99.99,,,-99.99,,2013-02-09 13:02:00,
2013-02-09 05:11:00,49.0,-99.9,29.99,West,260,4.0,6.0,-999,-99.99,,,-99.99,,2013-02-09 13:11:00,
2013-02-09 05:22:00,49.0,-99.9,29.99,WSW,256,4.0,5.0,-999,-99.99,,,-99.99,,2013-02-09 13:22:00,
2013-02-09 05:32:00,48.0,-99.9,29.99,WNW,290,3.0,4.0,-999,-99.99,,,-99.99,,2013-02-09 13:32:00,
2013-02-09 05:42:00,48.0,-99.9,29.99,WNW,302,3.0,4.0,-999,-99.99,,,-99.99,,2013-02-09 13:42:00,
2013-02-09 05:52:00,48.0,-99.9,29.99,WNW,290,2.0,3.0,-999,-99.99,,,-99.99,,2013-02-09 13:52:00,
2013-02-09 06:02:00,48.0,-99.9,29.99,WNW,290,2.0,3.0,-999,-99.99,,,-99.99,,2013-02-09 14:02:00,
2013-02-09 06:11:00,48.0,-99.9,29.99,NW,313,4.0,6.0,-999,-99.99,,,-99.99,,2013-02-09 14:11:00,
2013-02-09 06:22:00,48.0,-99.9,29.99,NW,314,2.0,3.0,-999,-99.99,,,-99.99,,2013-02-09 14:22:00,
2013-02-09 06:32:00,48.0,-99.9,29.99,NW,319,2.0,2.0,-999,-99.99,,,-99.99,,2013-02-09 14:32:00,
2013-02-09 06:42:00,47.0,-99.9,30.00,North,356,4.0,4.0,-999,-99.99,,,-99.99,,2013-02-09 14:42:00,
2013-02-09 06:52:00,47.0,-99.9,30.00,North,357,4.0,5.0,-999,-99.99,,,-99.99,,2013-02-09 14:52:00,
2013-02-09 07:02:00,47.0,-99.9,30.00,North,351,4.0,5.0,-999,-99.99,,,-99.99,,2013-02-09 15:02:00,
2013-02-09 07:11:00,47.0,-99.9,30.00,North,349,2.0,3.0,-999,-99.99,,,-99.99,,2013-02-09 15:11:00,
2013-02-09 07:22:00,47.0,-99.9,30.01,North,2,5.0,6.0,-999,-99.99,,,-99.99,,2013-02-09 15:22:00,
2013-02-09 07:32:00,47.0,-99.9,30.01,WNW,302,1.0,2.0,-999,-99.99,,,-99.99,,2013-02-09 15:32:00,
2013-02-09 07:42:00,47.0,-99.9,30.01,WNW,284,1.0,2.0,-999,-99.99,,,-99.99,,2013-02-09 15:42:00,
2013-02-09 07:52:00,47.0,-99.9,30.01,North,352,1.0,3.0,-999,-99.99,,,-99.99,,2013-02-09 15:52:00,
2013-02-09 08:01:00,47.0,-99.9,30.02,North,358,4.0,5.0,-999,-99.99,,,-99.99,,2013-02-09 16:01:00,
2013-02-09 08:11:00,47.0,-99.9,30.02,NNE,13,5.0,6.0,-999,-99.99,,,-99.99,,2013-02-09 16:11:00,
2013-02-09 08:22:00,47.0,-99.9,30.02,NNE,18,4.0,5.0,-999,-99.99,,,-99.99,,2013-02-09 16:22:00,
2013-02-09 08:32:00,47.0,-99.9,30.02,NNE,18,5.0,6.0,-999,-99.99,,,-99.99,,2013-02-09 16:32:00,
2013-02-09 08:42:00,47.0,-99.9,30.03,North,7,4.0,6.0,-999,-99.99,,,-99.99,,2013-02-09 16:42:00,
2013-02-09 08:52:00,47.0,-99.9,30.03,North,351,4.0,5.0,-999,-99.99,,,-99.99,,2013-02-09 16:52:00,
2013-02-09 09:01:00,47.0,-99.9,30.03,North,5,3.0,4.0,-999,-99.99,,,-99.99,,2013-02-09 17:01:00,
2013-02-09 09:11:00,48.0,-99.9,30.03,NNE,13,2.0,3.0,-999,-99.99,,,-99.99,,2013-02-09 17:11:00,
2013-02-09 09:22:00,48.0,-99.9,30.03,North,356,2.0,3.0,-999,-99.99,,,-99.99,,2013-02-09 17:22:00,
2013-02-09 09:32:00,49.0,-99.9,30.04,NE,39,2.0,3.0,-999,-99.99,,,-99.99,,2013-02-09 17:32:00,
2013-02-09 09:42:00,48.0,-99.9,30.04,NE,55,3.0,3.0,-999,-99.99,,,-99.99,,2013-02-09 17:42:00,
2013-02-09 09:52:00,48.0,-99.9,30.04,ESE,105,7.0,7.0,-999,-99.99,,,-99.99,,2013-02-09 17:52:00,
2013-02-09 10:02:00,48.0,-99.9,30.04,East,90,7.0,8.0,-999,-99.99,,,-99.99,,2013-02-09 18:02:00,
2013-02-09 10:12:00,48.0,-99.9,30.04,East,84,5.0,8.0,-999,-99.99,,,-99.99,,2013-02-09 18:12:00,
2013-02-09 10:23:00,48.0,-99.9,30.04,East,101,7.0,9.0,-999,-99.99,,,-99.99,,2013-02-09 18:23:00,
2013-02-09 10:32:00,48.0,-99.9,30.04,ESE,111,7.0,8.0,-999,-99.99,,,-99.99,,2013-02-09 18:32:00,
2013-02-09 10:42:00,48.0,-99.9,30.04,ESE,111,7.0,8.0,-999,-99.99,,,-99.99,,2013-02-09 18:42:00,
2013-02-09 10:52:00,48.0,-99.9,30.04,ESE,102,6.0,9.0,-999,-99.99,,,-99.99,,2013-02-09 18:52:00,
2013-02-09 11:02:00,48.0,-99.9,30.04,ESE,102,6.0,9.0,-999,-99.99,,,-99.99,,2013-02-09 19:02:00,
2013-02-09 11:11:00,48.0,-99.9,30.05,ESE,116,7.0,8.0,-999,-99.99,,,-99.99,,2013-02-09 19:11:00,
2013-02-09 11:22:00,48.0,-99.9,30.05,ESE,123,6.0,7.0,-999,-99.99,,,-99.99,,2013-02-09 19:22:00,
2013-02-09 11:32:00,48.0,-99.9,30.05,ESE,123,6.0,7.0,-999,-99.99,,,-99.99,,2013-02-09 19:32:00,
2013-02-09 11:42:00,49.0,-99.9,30.05,SE,126,5.0,6.0,-999,-99.99,,,-99.99,,2013-02-09 19:42:00,
2013-02-09 11:52:00,49.0,-99.9,30.04,SE,125,6.0,7.0,-999,-99.99,,,-99.99,,2013-02-09 19:52:00,
2013-02-09 12:02:00,50.0,-99.9,30.04,ESE,122,4.0,6.0,-999,-99.99,,,-99.99,,2013-02-09 20:02:00,
2013-02-09 12:11:00,50.0,-99.9,30.04,ESE,121,5.0,6.0,-999,-99.99,,,-99.99,,2013-02-09 20:11:00,
2013-02-09 12:22:00,51.0,-99.9,30.04,ESE,108,2.0,4.0,-999,-99.99,,,-99.99,,2013-02-09 20:22:00,
2013-02-09 12:32:00,51.0,-99.9,30.04,ESE,108,2.0,4.0,-999,-99.99,,,-99.99,,2013-02-09 20:32:00,
2013-02-09 12:42:00,52.0,-99.9,30.04,NW,314,4.0,4.0,-999,-99.99,,,-99.99,,2013-02-09 20:42:00,
2013-02-09 12:52:00,53.0,-99.9,30.04,NW,304,3.0,5.0,-999,-99.99,,,-99.99,,2013-02-09 20:52:00,
2013-02-09 13:02:00,52.0,-99.9,30.04,NW,324,3.0,4.0,-999,-99.99,,,-99.99,,2013-02-09 21:02:00,
2013-02-09 13:12:00,52.0,-99.9,30.03,NW,314,4.0,5.0,-999,-99.99,,,-99.99,,2013-02-09 21:12:00,
2013-02-09 13:22:00,53.0,-99.9,30.03,NW,312,4.0,4.0,-999,-99.99,,,-99.99,,2013-02-09 21:22:00,
2013-02-09 13:32:00,53.0,-99.9,30.03,NW,321,5.0,5.0,-999,-99.99,,,-99.99,,2013-02-09 21:32:00,
2013-02-09 13:42:00,53.0,-99.9,30.03,NNW,330,5.0,6.0,-999,-99.99,,,-99.99,,2013-02-09 21:42:00,
2013-02-09 13:52:00,53.0,-99.9,30.03,NNW,328,4.0,5.0,-999,-99.99,,,-99.99,,2013-02-09 21:52:00,
2013-02-09 14:02:00,54.0,-99.9,30.03,NW,306,4.0,4.0,-999,-99.99,,,-99.99,,2013-02-09 22:02:00,
2013-02-09 14:11:00,54.0,-99.9,30.02,NW,307,4.0,5.0,-999,-99.99,,,-99.99,,2013-02-09 22:11:00,
2013-02-09 14:22:00,53.0,-99.9,30.02,NW,318,5.0,6.0,-999,-99.99,,,-99.99,,2013-02-09 22:22:00,
2013-02-09 14:32:00,54.0,-99.9,30.01,NW,319,4.0,5.0,-999,-99.99,,,-99.99,,2013-02-09 22:32:00,
2013-02-09 14:42:00,54.0,-99.9,30.01,NW,317,5.0,6.0,-999,-99.99,,,-99.99,,2013-02-09 22:42:00,
2013-02-09 14:52:00,55.0,-99.9,30.01,NW,308,5.0,7.0,-999,-99.99,,,-99.99,,2013-02-09 22:52:00,
2013-02-09 15:02:00,56.0,-99.9,30.01,West,270,3.0,5.0,-999,-99.99,,,-99.99,,2013-02-09 23:02:00,
2013-02-09 15:11:00,55.0,-99.9,30.01,ENE,64,1.0,5.0,-999,-99.99,,,-99.99,,2013-02-09 23:11:00,
2013-02-09 15:22:00,53.0,-99.9,30.01,ESE,113,7.0,8.0,-999,-99.99,,,-99.99,,2013-02-09 23:22:00,
2013-02-09 15:32:00,53.0,-99.9,30.01,SE,130,5.0,6.0,-999,-99.99,,,-99.99,,2013-02-09 23:32:00,
2013-02-09 15:42:00,53.0,-99.9,30.01,ESE,102,2.0,4.0,-999,-99.99,,,-99.99,,2013-02-09 23:42:00,
2013-02-09 15:52:00,53.0,-99.9,30.01,ENE,64,4.0,4.0,-999,-99.99,,,-99.99,,2013-02-09 23:52:00,
2013-02-09 16:02:00,53.0,-99.9,30.01,ENE,73,3.0,6.0,-999,-99.99,,,-99.99,,2013-02-10 00:02:00,
2013-02-09 16:12:00,56.0,-99.9,30.01,WSW,245,6.0,9.0,-999,-99.99,,,-99.99,,2013-02-10 00:12:00,
2013-02-09 16:22:00,55.0,-99.9,30.01,WSW,244,6.0,9.0,-999,-99.99,,,-99.99,,2013-02-10 00:22:00,
2013-02-09 16:32:00,55.0,-99.9,30.01,WSW,247,7.0,11.0,-999,-99.99,,,-99.99,,2013-02-10 00:32:00,
2013-02-09 16:42:00,54.0,-99.9,30.01,WSW,243,10.0,13.0,-999,-99.99,,,-99.99,,2013-02-10 00:42:00,
2013-02-09 16:52:00,54.0,-99.9,30.02,WSW,250,9.0,12.0,-999,-99.99,,,-99.99,,2013-02-10 00:52:00,
2013-02-09 17:01:00,54.0,-99.9,30.01,WSW,247,7.0,11.0,-999,-99.99,,,-99.99,,2013-02-10 01:01:00,
2013-02-09 17:12:00,53.0,-99.9,30.01,WSW,248,9.0,14.0,-999,-99.99,,,-99.99,,2013-02-10 01:12:00,
2013-02-09 17:22:00,53.0,-99.9,30.02,WSW,251,9.0,11.0,-999,-99.99,,,-99.99,,2013-02-10 01:22:00,
2013-02-09 17:32:00,53.0,-99.9,30.02,WSW,245,9.0,13.0,-999,-99.99,,,-99.99,,2013-02-10 01:32:00,
2013-02-09 17:42:00,53.0,-99.9,30.01,WSW,240,5.0,9.0,-999,-99.99,,,-99.99,,2013-02-10 01:42:00,
2013-02-09 17:52:00,53.0,-99.9,30.01,SW,230,7.0,11.0,-999,-99.99,,,-99.99,,2013-02-10 01:52:00,
2013-02-09 18:01:00,53.0,-99.9,30.01,WSW,247,7.0,11.0,-999,-99.99,,,-99.99,,2013-02-10 02:01:00,
2013-02-09 18:11:00,52.0,-99.9,30.02,WSW,246,6.0,10.0,-999,-99.99,,,-99.99,,2013-02-10 02:11:00,
2013-02-09 18:22:00,52.0,-99.9,30.02,WSW,245,6.0,9.0,-999,-99.99,,,-99.99,,2013-02-10 02:22:00,
2013-02-09 18:32:00,52.0,-99.9,30.03,WSW,249,5.0,9.0,-999,-99.99,,,-99.99,,2013-02-10 02:32:00,
2013-02-09 18:42:00,52.0,-99.9,30.04,WSW,251,6.0,10.0,-999,-99.99,,,-99.99,,2013-02-10 02:42:00,
2013-02-09 18:52:00,51.0,-99.9,30.04,WSW,248,7.0,11.0,-999,-99.99,,,-99.99,,2013-02-10 02:52:00,
2013-02-09 19:02:00,51.0,-99.9,30.04,WSW,244,8.0,12.0,-999,-99.99,,,-99.99,,2013-02-10 03:02:00,
2013-02-09 19:12:00,51.0,-99.9,30.04,WSW,241,9.0,11.0,-999,-99.99,,,-99.99,,2013-02-10 03:12:00,
2013-02-09 19:22:00,51.0,-99.9,30.04,WSW,245,9.0,12.0,-999,-99.99,,,-99.99,,2013-02-10 03:22:00,
2013-02-09 19:32:00,51.0,-99.9,30.04,WSW,244,8.0,12.0,-999,-99.99,,,-99.99,,2013-02-10 03:32:00,
2013-02-09 19:42:00,51.0,-99.9,30.05,WSW,247,7.0,10.0,-999,-99.99,,,-99.99,,2013-02-10 03:42:00,
2013-02-09 19:52:00,51.0,-99.9,30.05,WSW,247,6.0,10.0,-999,-99.99,,,-99.99,,2013-02-10 03:52:00,
2013-02-09 20:02:00,52.0,-99.9,30.05,WSW,255,5.0,8.0,-999,-99.99,,,-99.99,,2013-02-10 04:02:00,
2013-02-09 20:11:00,52.0,-99.9,30.05,WSW,250,6.0,8.0,-999,-99.99,,,-99.99,,2013-02-10 04:11:00,
2013-02-09 20:22:00,52.0,-99.9,30.05,WSW,257,5.0,11.0,-999,-99.99,,,-99.99,,2013-02-10 04:22:00,
2013-02-09 20:32:00,52.0,-99.9,30.06,WSW,247,5.0,7.0,-999,-99.99,,,-99.99,,2013-02-10 04:32:00,
2013-02-09 20:42:00,52.0,-99.9,30.06,WSW,255,4.0,8.0,-999,-99.99,,,-99.99,,2013-02-10 04:42:00,
2013-02-09 20:52:00,52.0,-99.9,30.06,WSW,253,3.0,5.0,-999,-99.99,,,-99.99,,2013-02-10 04:52:00,
2013-02-09 21:01:00,52.0,-99.9,30.07,West,273,5.0,7.0,-999,-99.99,,,-99.99,,2013-02-10 05:01:00,
2013-02-09 21:11:00,52.0,-99.9,30.07,West,265,4.0,7.0,-999,-99.99,,,-99.99,,2013-02-10 05:11:00,
2013-02-09 21:23:00,51.0,-99.9,30.06,West,266,3.0,6.0,-999,-99.99,,,-99.99,,2013-02-10 05:23:00,
2013-02-09 21:32:00,51.0,-99.9,30.06,WNW,295,3.0,4.0,-999,-99.99,,,-99.99,,2013-02-10 05:32:00,
2013-02-09 21:42:00,51.0,-99.9,30.06,WNW,295,3.0,4.0,-999,-99.99,,,-99.99,,2013-02-10 05:42:00,
2013-02-09 21:52:00,51.0,-99.9,30.06,NW,319,5.0,5.0,-999,-99.99,,,-99.99,,2013-02-10 05:52:00,
2013-02-09 22:02:00,51.0,-99.9,30.06,NW,306,4.0,5.0,-999,-99.99,,,-99.99,,2013-02-10 06:02:00,
2013-02-09 22:11:00,51.0,-99.9,30.06,NW,324,3.0,5.0,-999,-99.99,,,-99.99,,2013-02-10 06:11:00,
2013-02-09 22:21:00,51.0,-99.9,30.06,NW,325,3.0,4.0,-999,-99.99,,,-99.99,,2013-02-10 06:21:00,
2013-02-09 22:32:00,51.0,-99.9,30.06,NW,320,3.0,4.0,-999,-99.99,,,-99.99,,2013-02-10 06:32:00,
2013-02-09 22:42:00,51.0,-99.9,30.06,NW,323,0.0,3.0,-999,-99.99,,,-99.99,,2013-02-10 06:42:00,
2013-02-09 22:52:00,51.0,-99.9,30.06,East,84,1.0,2.0,-999,-99.99,,,-99.99,,2013-02-10 06:52:00,
2013-02-09 23:01:00,51.0,-99.9,30.06,SE,126,3.0,4.0,-999,-99.99,,,-99.99,,2013-02-10 07:01:00,
2013-02-09 23:11:00,50.0,-99.9,30.06,NE,44,3.0,4.0,-999,-99.99,,,-99.99,,2013-02-10 07:11:00,
2013-02-09 23:21:00,50.0,-99.9,30.06,NE,56,3.0,4.0,-999,-99.99,,,-99.99,,2013-02-10 07:21:00,
2013-02-09 23:32:00,50.0,-99.9,30.06,SE,131,3.0,5.0,-999,-99.99,,,-99.99,,2013-02-10 07:32:00,
2013-02-09 23:42:00,50.0,-99.9,30.06,SE,138,3.0,3.0,-999,-99.99,,,-99.99,,2013-02-10 07:42:00,
2013-02-09 23:52:00,51.0,-99.9,30.06,ESE,119,4.0,4.0,-999,-99.99,,,-99.99,,2013-02-10 07:52:00,